DL3CSM-13 Weather Reports


Display with metric or nautical units.
time (UTC)temp
F
wind
direction
speed
MPH
gust
MPH
rain 1hr
in
rain 24hr
in
rain mn
in
humidity
%
barometer
mb
20260505173011 63 331 1.0 2.0 0.00 0.01 0.01 62 1006.9
20260505171511 63 324 0.0 3.0 0.00 0.01 0.01 63 1006.9
20260505170011 64 350 0.0 3.0 0.01 0.01 0.01 64 1006.8
20260505164511 63 332 0.0 1.0 0.01 0.01 0.01 67 1006.9
20260505163011 62 315 0.0 2.0 0.01 0.01 0.01 73 1007.0
20260505161511 62 202 0.0 2.0 0.01 0.01 0.01 69 1007.1
20260505153011 64 220 2.0 4.0 0.00 0.00 0.00 63 1007.2
20260505151511 65 226 3.0 5.0 0.00 0.00 0.00 61 1007.0
20260505124511 77 192 1.0 2.0 0.00 0.00 0.00 34 1006.4
20260505121512 78 5 1.0 3.0 0.00 0.00 0.00 33 1006.5
20260505120011 79 14 1.0 3.0 0.00 0.00 0.00 34 1006.7
20260505114511 78 202 1.0 3.0 0.00 0.00 0.00 32 1006.6
20260505113011 77 134 1.0 2.0 0.00 0.00 0.00 39 1006.8
20260505111511 77 136 1.0 4.0 0.00 0.00 0.00 39 1007.0
20260505101511 74 323 1.0 2.0 0.00 0.00 0.00 43 1007.8
20260505100011 74 259 1.0 4.0 0.00 0.00 0.00 42 1008.0
20260505094511 73 38 1.0 2.0 0.00 0.00 0.00 44 1008.1
20260505093011 73 122 1.0 3.0 0.00 0.00 0.00 46 1008.4
20260505091511 72 237 0.0 2.0 0.00 0.00 0.00 47 1008.5
20260505090011 70 10 1.0 3.0 0.00 0.00 0.00 51 1008.7
20260505084511 68 134 1.0 2.0 0.00 0.00 0.00 54 1008.9
20260505083011 67 204 1.0 3.0 0.00 0.00 0.00 55 1009.1
20260505081511 65 216 3.0 4.0 0.00 0.00 0.00 61 1009.2
20260505074511 62 207 3.0 5.0 0.00 0.00 0.00 66 1009.5
20260505073011 60 216 1.0 2.0 0.00 0.00 0.00 69 1009.4
20260505071511 59 209 1.0 2.0 0.00 0.00 0.00 72 1009.5
20260505070011 58 225 1.0 3.0 0.00 0.00 0.00 73 1009.4
20260505063011 56 221 0.0 2.0 0.00 0.00 0.00 76 1009.6
20260505061511 55 226 0.0 2.0 0.00 0.00 0.00 77 1009.7
20260505060011 55 216 0.0 0.0 0.00 0.00 0.00 80 1009.9
20260505054511 53 219 0.0 0.0 0.00 0.00 0.00 83 1009.8
20260505051511 51 197 1.0 2.0 0.00 0.00 0.00 87 1009.8
20260505041511 49 197 0.0 1.0 0.00 0.00 0.00 85 1009.8
20260505040011 49 0 0.0 0.0 0.00 0.00 0.00 85 1009.9
20260505033011 50 0 0.0 0.0 0.00 0.00 0.00 84 1010.0
20260505030011 51 0 0.0 0.0 0.00 0.00 0.00 83 1010.3
20260505024511 51 0 0.0 0.0 0.00 0.00 0.00 83 1010.3
20260505021511 51 202 2.0 4.0 0.00 0.00 0.00 82 1010.6
20260505020011 52 0 0.0 0.0 0.00 0.00 0.00 81 1010.6
20260505014511 52 198 1.0 3.0 0.00 0.00 0.00 79 1010.6
20260505013011 54 199 1.0 2.0 0.00 0.00 0.00 77 1010.5
20260505011511 55 228 1.0 2.0 0.00 0.00 0.00 78 1010.7
20260505010011 55 0 0.0 0.0 0.00 0.00 0.00 78 1010.8
20260505004511 55 228 1.0 3.0 0.00 0.00 0.00 77 1011.0
20260505003011 56 231 2.0 3.0 0.00 0.00 0.00 76 1011.0
20260505001511 56 229 2.0 3.0 0.00 0.00 0.00 74 1011.1
20260505000011 57 196 0.0 2.0 0.00 0.00 0.00 71 1011.0
20260504234511 58 0 0.0 0.0 0.00 0.00 0.00 70 1011.1
20260504233011 59 155 0.0 2.0 0.00 0.00 0.00 69 1011.1
20260504231511 59 0 0.0 0.0 0.00 0.00 0.00 68 1011.3
20260504224511 60 0 0.0 0.0 0.00 0.00 0.00 67 1011.3
20260504223011 60 0 0.0 0.0 0.00 0.00 0.00 67 1011.3
20260504221511 60 8 1.0 4.0 0.00 0.00 0.00 66 1011.5
20260504220011 60 14 1.0 4.0 0.00 0.00 0.00 66 1011.8
20260504214511 61 226 3.0 5.0 0.00 0.00 0.00 67 1012.2
20260504213011 61 220 4.0 9.0 0.00 0.00 0.00 67 1012.5
20260504210011 62 232 4.0 6.0 0.00 0.00 0.00 65 1013.0
20260504201511 63 17 0.0 2.0 0.00 0.00 0.00 53 1011.8
20260504200011 64 0 0.0 0.0 0.00 0.00 0.00 52 1011.4
20260504194511 66 0 0.0 0.0 0.00 0.00 0.00 51 1011.4
20260504193011 67 17 0.0 2.0 0.00 0.00 0.00 51 1011.3
20260504191511 68 17 0.0 2.0 0.00 0.00 0.00 48 1011.3
20260504190011 68 344 0.0 2.0 0.00 0.00 0.00 47 1011.3
20260504184511 69 0 0.0 0.0 0.00 0.00 0.00 46 1011.3
20260504183011 70 8 0.0 2.0 0.00 0.00 0.00 45 1011.2
20260504180011 71 336 0.0 2.0 0.00 0.00 0.00 44 1011.2